SCP
1 1 1 1 1 1 1 1 1 1 1 1 1 1 0 0 0 0 0 0 0 0 0 0 0 0 0 0 0 0 0 0 0 0 0 0 0 0 0 0 0 0 0
1 1 1 1 1 1 1 1 1 1 1 1 1 1 0 0 0 0 0 0 0 0 0 0 0 0 0 0 0 0 0 0 0 0 0 0 0 0 0 0 0 0 0
1 1 1 1 1 1 1 1 1 1 0 0 1 1 0 0 0 0 0 0 0 0 0 0 0 0 0 0 0 0 0 0 0 0 0 0 0 0 0 0 0 0 0
1 1 1 1 1 1 1 1 1 1 0 0 0 0 0 0 0 0 0 0 0 0 0 0 0 0 0 0 0 0 0 0 0 0 0 0 0 0 0 0 0 0 0
1 1 1 1 1 1 1 1 1 1 0 0 0 0 0 0 0 0 0 0 0 0 0 0 0 0 0 0 0 0 0 0 0 0 0 0 0 0 0 0 0 0 0
1 1 1 1 1 1 1 1 1 1 0 0 0 0 0 0 0 0 0 0 0 0 0 0 0 0 0 0 0 0 0 0 0 0 0 0 0 0 0 0 0 0 0
1 1 1 1 1 1 1 1 1 0 0 0 0 0 0 0 0 0 0 0 0 0 0 0 0 0 0 0 0 0 0 0 0 0 0 0 0 0 0 0 0 0 0
1 1 1 1 1 1 0 0 0 0 0 0 0 0 0 0 0 0 0 0 0 0 0 0 0 0 0 0 0 0 0 0 0 0 0 0 0 0 0 0 0 0 0
1 1 1 1 0 0 0 0 0 0 0 0 0 0 0 0 0 0 0 0 0 0 0 0 0 0 0 0 0 0 0 0 0 0 0 0 0 0 0 0 0 0 0
1 1 0 0 0 0 0 0 0 0 0 0 0 0 0 0 0 0 0 0 0 0 0 0 0 0 0 0 0 0 0 0 0 0 0 0 0 0 0 0 0 0 0
0 0 0 0 0 0 0 0 0 0 0 0 0 0 0 0 0 0 0 0 0 0 0 0 0 0 0 0 0 0 0 0 0 0 0 0 0 0 0 0 0 0 0
0 0 0 0 0 0 0 0 0 0 0 0 0 0 0 0 0 0 0 0 0 0 0 0 0 0 0 0 0 0 0 0 0 0 0 0 0 0 0 0 0 0 0
0 0 0 0 0 0 0 0 0 0 0 0 0 0 0 0 0 0 0 0 0 0 0 0 0 0 0 0 0 0 0 0 0 0 0 0 0 0 0 0 0 0 0
0 0 0 0 0 0 0 0 0 0 0 0 0 0 0 0 0 0 0 0 0 0 0 0 0 0 0 0 0 0 0 0 0 0 0 0 0 0 0 0 0 0 0
0 0 0 0 0 0 0 0 0 0 0 0 0 0 0 0 0 0 0 0 0 0 0 0 0 0 0 0 0 0 0 0 0 0 0 0 0 0 0 0 0 0 0
0 0 0 0 0 0 0 0 0 0 0 0 0 0 0 0 0 0 0 0 0 0 0 0 0 0 0 0 0 0 0 0 0 0 0 0 0 0 0 0 0 0 0
0 0 0 0 0 0 0 0 0 0 0 0 0 0 0 0 0 0 0 0 0 0 0 0 0 0 0 0 0 0 0 0 0 0 0 0 0 0 0 0 0 0 0
0 0 0 0 0 0 0 0 0 0 0 0 0 0 0 0 0 0 0 0 0 0 0 0 0 0 0 0 0 0 0 0 0 0 0 0 0 0 0 0 0 0 0
0 0 0 0 0 0 0 0 0 0 0 0 0 0 0 0 0 0 0 0 0 0 0 0 0 0 0 0 0 0 0 0 0 0 0 0 0 0 0 0 0 0 0
0 0 0 0 0 0 0 0 0 0 0 0 0 0 0 0 0 0 0 0 0 0 0 0 0 0 0 0 0 0 0 0 0 0 0 0 0 0 0 0 0 0 0
0 0 0 0 0 0 0 0 0 0 0 0 0 0 0 0 0 0 0 0 0 0 0 0 0 0 0 0 0 0 0 0 0 0 0 0 0 0 0 0 0 0 0
0 0 0 0 0 0 0 0 0 0 0 0 0 0 0 0 0 0 0 0 0 0 0 0 0 0 0 0 0 0 0 0 0 0 0 0 -0 -0 0 0 0 0 -0
0 0 0 0 0 0 0 0 0 0 0 0 0 0 0 0 0 0 0 0 0 0 0 0 0 0 0 0 0 0 0 0 0 0 0 0 0 0 0 0 0 0 0
0 0 0 0 0 0 0 0 0 0 0 0 0 0 0 0 0 0 0 0 0 0 0 0 0 0 0 0 0 0 0 0 0 0 0 0 0 0 0 0 0 0 0
0 0 0 0 0 0 0 0 0 0 0 0 0 0 0 0 0 0 0 0 0 0 0 0 0 0 0 0 0 0 0 0 0 0 0 0 0 0 0 0 0 0 0
0 0 0 0 0 0 0 0 0 0 0 0 0 0 0 0 0 0 0 0 0 0 0 0 0 0 0 0 0 0 0 0 -0 0 0 0 0 0 0 0 0 0 0
Wind_Speed
4 4 4 5 5 4 4 4 3 2 2 1 1 1 1 1 1 1 1 2 2 2 1 0 0 1 0 1 1 1 2 2 2 2 3 3 3 2 1 1 0 1 1
5 5 4 3 3 4 4 3 3 2 2 2 2 1 1 1 1 0 1 1 1 1 1 1 0 0 0 1 1 1 1 1 2 0 1 3 4 3 2 1 0 1 1
9 7 5 3 3 3 4 3 3 2 1 1 1 2 2 1 1 1 1 1 1 1 2 1 1 1 1 0 1 0 1 1 1 0 1 0 2 3 3 2 2 1 1
8 7 7 5 5 4 3 3 3 2 1 2 2 3 2 1 1 1 0 1 1 1 2 1 1 1 1 1 1 1 0 1 1 1 0 1 2 1 2 3 2 3 2
8 7 6 6 4 4 3 3 3 2 2 2 3 3 2 1 1 1 1 1 1 1 1 1 1 1 1 0 0 0 0 1 1 1 1 1 1 1 1 3 3 3 2
7 6 5 5 4 3 3 3 3 2 2 2 3 3 3 2 2 1 1 0 0 0 1 1 1 0 0 0 1 1 1 1 1 1 1 1 1 1 1 2 2 3 3
7 6 5 5 5 4 3 3 4 3 2 2 2 2 2 2 2 1 1 1 0 0 1 0 0 0 0 1 1 1 1 1 1 1 1 1 2 2 2 1 1 2 2
6 6 6 5 5 4 3 3 3 2 2 2 2 2 2 1 1 1 1 1 1 1 1 0 0 0 1 1 1 1 1 1 1 1 1 1 2 1 2 2 1 1 2
6 6 5 4 5 4 3 4 3 2 1 1 1 1 1 1 1 0 0 1 1 1 1 1 1 0 0 0 0 0 1 1 1 1 1 1 2 1 1 1 2 2 2
6 5 5 4 4 4 3 3 4 3 2 1 1 1 1 1 0 0 0 1 1 1 1 0 1 1 1 0 0 0 1 1 1 1 1 1 1 1 1 1 1 2 2
7 6 5 4 4 3 2 2 2 2 2 2 1 1 1 1 1 0 1 1 1 1 1 1 0 0 0 0 0 0 1 1 1 2 1 2 2 1 1 1 1 1 2
5 6 5 4 4 3 3 2 2 2 2 2 2 1 0 0 0 1 1 1 1 1 1 1 0 0 0 0 0 1 1 1 1 2 2 2 2 2 1 1 1 1 2
5 5 4 4 4 3 3 2 2 2 2 2 2 1 0 0 1 1 1 1 0 1 1 0 0 0 1 1 1 1 1 1 2 2 2 2 2 2 2 2 2 2 2
6 6 4 3 3 3 2 2 2 2 3 2 2 2 1 1 1 1 1 1 1 0 0 0 0 1 1 1 1 1 1 1 2 2 2 2 2 2 3 2 2 2 2
6 6 5 4 3 3 2 2 2 2 2 2 2 2 1 1 0 1 1 1 1 1 0 0 1 1 1 1 1 1 1 1 2 3 2 2 3 3 3 2 2 2 2
6 6 6 5 4 4 3 2 2 1 2 2 2 1 1 0 0 1 1 1 1 1 1 1 1 1 1 2 2 2 1 2 2 3 3 3 3 4 5 5 4 3 3
6 7 6 5 5 4 4 3 3 2 2 2 2 1 1 1 0 0 1 1 1 1 1 2 1 1 3 4 3 3 1 1 2 2 3 3 3 4 3 4 5 4 4
6 6 6 5 4 3 3 3 2 2 2 1 1 1 1 1 1 0 0 1 1 0 1 1 2 2 4 4 4 3 1 1 2 2 2 2 4 4 3 2 3 3 4
6 6 5 5 4 4 4 4 2 2 2 1 1 1 2 1 1 0 1 1 1 1 1 2 1 2 4 5 4 2 1 1 3 3 3 2 2 5 3 1 2 4 5
5 5 5 4 4 3 4 4 3 2 2 2 2 1 1 1 1 1 1 1 1 1 2 2 2 2 3 4 4 2 0 1 2 3 3 4 4 5 4 2 2 4 5
6 6 5 4 3 4 4 4 3 2 3 2 2 1 1 1 2 1 1 1 1 1 2 2 2 2 3 4 4 2 1 1 2 2 3 4 6 6 5 4 3 6 6
5 6 5 3 2 3 4 3 3 3 2 2 1 1 1 1 1 1 1 1 1 1 2 2 3 3 3 3 3 3 2 2 2 3 3 4 7 8 8 5 6 8 6
5 4 5 4 2 2 4 4 3 2 2 2 1 1 1 1 1 1 1 1 1 1 2 2 3 4 3 3 4 4 4 4 3 4 7 8 9 9 7 8 9 6 3
4 4 5 4 2 2 3 4 3 3 3 2 1 2 1 2 2 1 1 2 2 2 2 2 3 3 3 3 2 2 2 3 3 3 6 8 8 6 6 7 5 3 3
4 4 5 4 3 3 3 3 3 3 3 2 1 2 2 2 2 2 2 3 3 4 4 3 3 3 4 5 5 3 2 2 3 3 3 3 3 4 4 4 4 3 3
4 4 4 4 3 3 3 3 3 3 3 2 1 1 1 1 2 2 3 4 5 6 7 7 6 5 7 8 7 7 6 6 5 2 3 4 4 4 5 5 5 4 4
Wind_Direction
148 133 134 135 130 127 114 115 123 138 135 135 136 141 165 145 111 151 143 130 120 120 122 142 50 27 56 336 343 353 343 322 335 343 325 317 309 298 276 263 215 218 227
134 140 134 130 132 136 131 126 134 148 155 164 170 168 151 140 140 114 80 93 97 116 141 132 134 31 42 8 10 27 360 319 358 20 333 330 334 342 338 322 277 286 312
157 153 146 139 146 143 138 137 146 150 142 145 119 93 67 51 51 55 36 27 75 81 75 91 102 83 87 23 331 81 136 280 315 49 147 207 282 310 324 344 347 343 330
153 156 154 154 160 157 145 149 150 141 126 117 123 132 129 152 196 178 122 17 55 82 87 85 115 110 96 66 355 44 175 155 299 310 266 202 212 256 311 325 334 331 315
155 159 158 156 149 146 140 139 125 110 104 113 129 124 119 137 123 98 81 38 20 44 73 80 86 74 73 91 250 288 286 180 204 236 271 302 315 227 226 289 315 327 313
152 152 149 141 138 135 128 124 116 99 97 107 115 124 128 124 115 103 116 63 16 19 48 101 104 81 55 300 284 265 250 235 223 233 224 211 221 248 227 251 291 303 301
150 148 144 144 141 138 141 130 123 109 94 94 94 104 121 130 138 153 174 173 163 285 279 105 91 12 299 287 315 309 272 254 233 239 248 235 232 227 212 219 262 287 294
149 152 150 147 139 130 124 130 125 114 104 103 102 94 95 98 113 180 177 178 194 218 226 175 160 297 302 311 345 332 293 278 240 254 259 262 265 243 210 199 201 291 303
150 148 147 146 139 132 131 130 123 118 110 114 112 78 71 71 53 14 122 182 204 205 168 159 162 246 261 281 358 323 305 317 312 290 286 276 276 271 250 210 191 193 264
154 152 152 149 145 142 142 130 135 146 134 110 123 112 68 28 354 18 298 236 241 213 162 196 211 232 247 293 76 314 328 7 338 327 336 304 288 303 294 247 221 197 206
160 159 156 147 133 129 139 142 141 131 130 135 129 103 67 33 17 338 269 248 248 225 197 207 242 225 306 353 63 307 337 2 331 328 334 308 297 308 303 288 256 232 202
158 158 153 141 136 148 161 169 165 155 154 153 143 126 94 80 311 298 292 282 300 295 260 214 137 38 20 48 89 310 324 303 308 307 318 311 323 316 299 290 272 255 227
144 142 142 150 161 172 174 180 171 168 161 140 132 121 80 272 286 296 298 295 330 342 321 313 134 237 250 273 271 244 262 269 267 269 279 292 314 316 303 290 279 268 259
150 153 157 163 165 158 155 160 172 170 155 136 136 149 213 232 251 277 293 309 313 300 318 309 249 267 284 295 280 264 300 299 292 285 280 278 268 272 283 289 280 275 267
157 162 167 169 162 151 155 151 156 157 153 145 151 191 226 240 277 327 310 315 317 266 217 111 331 332 324 291 275 276 291 301 309 314 303 280 282 283 280 275 265 264 251
164 161 162 167 166 165 165 156 150 152 140 140 164 196 203 204 329 290 297 339 343 338 4 357 326 332 320 301 293 271 275 281 291 305 308 301 306 304 302 293 275 248 233
165 163 167 174 172 173 166 166 172 163 152 159 165 183 159 155 222 216 34 6 338 3 353 333 327 311 301 303 307 291 272 284 291 293 298 305 313 312 304 305 308 301 269
159 162 163 166 171 169 158 156 147 151 156 155 161 173 166 169 175 110 26 302 295 312 303 305 298 302 303 309 313 308 326 319 308 295 284 281 297 307 299 305 320 313 302
158 161 164 163 162 164 163 144 138 146 145 157 176 177 158 154 151 230 278 277 289 305 295 288 292 292 301 313 315 312 1 333 321 321 319 294 287 308 311 308 309 315 311
138 144 143 135 152 170 150 137 148 154 188 189 184 176 163 162 188 236 264 284 286 283 304 314 303 282 292 313 318 296 150 298 304 318 321 314 298 302 308 289 285 299 300
132 135 133 137 161 159 140 141 154 189 206 189 171 187 214 210 213 236 262 280 300 319 321 318 308 296 286 304 314 306 186 229 274 294 299 302 307 304 301 288 265 267 279
135 139 138 143 152 146 140 151 185 200 176 152 151 211 254 252 206 227 294 307 309 318 308 309 309 301 296 290 297 302 258 234 241 270 277 282 296 300 298 289 273 276 280
147 145 145 145 154 159 153 162 196 178 150 138 175 252 276 286 259 226 254 289 297 288 289 284 285 292 293 290 287 294 290 269 243 260 274 285 291 297 294 285 285 282 261
152 142 139 147 164 176 168 179 184 163 151 169 224 254 268 287 295 283 246 234 251 261 271 271 275 284 292 292 294 295 293 290 283 282 287 292 292 289 281 288 294 274 244
153 147 151 161 176 173 171 181 174 158 157 185 231 256 251 257 285 287 262 240 241 233 233 247 246 253 275 275 265 259 267 269 275 299 306 311 313 312 306 302 293 283 271
152 152 159 168 179 173 178 193 180 163 163 192 244 253 254 269 271 283 307 301 269 270 259 247 241 254 252 263 272 274 276 278 277 271 279 285 283 282 283 288 293 287 271